This demonstration page uses our WeatherBlox Daily Observations layout. Learn more.

38.89511, -77.03637

Hourly Observations for September 1, 2017

Temp ( °F °C ) Dew Point ( °F °C ) Humidity (%) Winds ( mph kmh ) Pressure ( in mb ) Visibility ( mi km ) Precip ( " mm )
12:52 am 00:52 Cloudy 73 22.8 64 17.8 74 74 NNE 13 20 30 1016 10 16.09344 0 0
1:52 am 01:52 Mostly Cloudy 72 22.2 61 16.1 68 68 NNE 12 19 30 1016 10 16.09344 0 0
2:52 am 02:52 Mostly Cloudy 71 21.7 59 15 66 66 NNE 12 19 30.03 1017 10 16.09344 0 0
3:52 am 03:52 Mostly Cloudy 69 20.6 57 13.9 66 66 NNE 13 20 30.03 1017 10 16.09344 0 0
4:52 am 04:52 Cloudy 67 19.4 55 12.8 66 66 NNE 17 28 30.06 1018 10 16.09344 0 0
5:52 am 05:52 Cloudy 66 18.9 51 10.6 59 59 NNE 20 31 30.09 1019 10 16.09344 0 0
6:52 am 06:52 Cloudy 64 17.8 52 11.1 65 65 NNE 17 28 30.12 1020 10 16.09344 0 0
7:52 am 07:52 Cloudy 63 17.2 51 10.6 65 65 NNE 18 30 30.15 1021 10 16.09344 0 0
8:52 am 08:52 Cloudy 63 17.2 49 9.4 60 60 NNE 13 20 30.15 1021 10 16.09344 0 0
9:52 am 09:52 Cloudy 64 17.8 49 9.4 58 58 NE 14 22 30.18 1022 10 16.09344 0 0
10:52 am 10:52 Cloudy 64 17.8 50 10 60 60 ENE 7 11 30.18 1022 10 16.09344 0 0
11:52 am 11:52 Cloudy 64 17.8 50 10 60 60 NE 12 19 30.18 1022 10 16.09344 0 0
12:52 pm 12:52 Cloudy 64 17.8 49 9.4 58 58 NNE 12 19 30.15 1021 10 16.09344 0 0
1:52 pm 13:52 Cloudy 65 18.3 48 8.9 54 54 N 7 11 30.18 1022 10 16.09344 0 0
2:52 pm 14:52 Cloudy 66 18.9 48 8.9 52 52 NNE 10 17 30.12 1020 10 16.09344 0 0
3:52 pm 15:52 Cloudy 66 18.9 48 8.9 52 52 NNE 6 9 30.12 1020 10 16.09344 0 0
4:52 pm 16:52 Cloudy 66 18.9 47 8.3 50 50 ENE 3 6 30.15 1021 10 16.09344 0 0
5:52 pm 17:52 Cloudy 67 19.4 49 9.4 53 53 ENE 8 13 30.12 1020 10 16.09344 0 0
6:52 pm 18:52 Mostly Cloudy 65 18.3 50 10 59 59 E 8 13 30.12 1020 10 16.09344 0 0
7:52 pm 19:52 Cloudy 64 17.8 51 10.6 63 63 ESE 6 9 30.15 1021 10 16.09344 0 0
8:52 pm 20:52 Cloudy 64 17.8 51 10.6 63 63 E 6 9 30.18 1022 10 16.09344 0 0
9:52 pm 21:52 Cloudy 64 17.8 52 11.1 65 65 E 6 9 30.18 1022 10 16.09344 0 0
10:52 pm 22:52 Cloudy 64 17.8 50 10 60 60 E 5 7 30.15 1021 10 16.09344 0 0
11:52 pm 23:52 Cloudy 63 17.2 51 10.6 65 65 ENE 7 11 30.15 1021 10 16.09344 0.001 0.001

Powered by AerisWeather